Terug naar catalogus

HUYGENS

ActiefWetenschapSSO
NORAD 55093·PAYLOAD·🇳🇴 Norway

Gelanceerd Jan 3, 2023 vanaf Cape Canaveral Space Force Station

Loading…

Volgende Passages (komende 24 uur)

TLE

VersSource: Space-Track

Epoch: Sep 14, 2026, 21:36 UTC

1 55093U 23001CN  26257.90013038  .00008880  00000-0  21378-3 0  9992
2 55093  97.3161 325.2574 0010660 115.9281 244.3066 15.41453917206181

Volg HUYGENS in realtime met AllMySat

Download on the App Store